ENBN Weather Reports


time (UTC)temp
F
wind
direction
speed
knots
gust
knots
rain 1hr
in
rain 24hr
in
rain mn
in
humidity
%
barometer
mb
20260508100307 50 100 8.7 0.0 0.00 0.00 0.00 49 1021.0
20260508093307 50 90 10.4 0.0 0.00 0.00 0.00 53 1021.0
20260508090307 48 110 7.0 0.0 0.00 0.00 0.00 53 1021.0
20260508083307 48 90 8.7 0.0 0.00 0.00 0.00 53 1021.0
20260508073307 46 90 7.0 0.0 0.00 0.00 0.00 56 1022.0
20260508070306 46 90 7.0 0.0 0.00 0.00 0.00 56 1022.0
20260508063306 44 90 8.7 0.0 0.00 0.00 0.00 60 1022.0
20260508060306 42 90 7.8 0.0 0.00 0.00 0.00 65 1022.0
20260508053307 42 90 8.7 0.0 0.00 0.00 0.00 65 1022.0
20260508050306 42 90 7.0 0.0 0.00 0.00 0.00 65 1022.0
20260508043306 41 40 4.3 0.0 0.00 0.00 0.00 70 1022.0
20260508040307 39 40 2.6 0.0 0.00 0.00 0.00 75 1022.0
20260508030306 35 0 0.0 0.0 0.00 0.00 0.00 86 1022.0
20260508023307 35 0 0.0 0.0 0.00 0.00 0.00 86 1022.0
20260508020307 35 90 2.6 0.0 0.00 0.00 0.00 86 1022.0
20260508013307 37 150 5.2 0.0 0.00 0.00 0.00 80 1022.0
20260508010306 37 150 5.2 0.0 0.00 0.00 0.00 86 1022.0
20260508003306 39 170 2.6 0.0 0.00 0.00 0.00 80 1022.0
20260508000306 39 180 2.6 0.0 0.00 0.00 0.00 80 1021.0
20260507233306 39 190 4.3 0.0 0.00 0.00 0.00 80 1021.0
20260507230306 37 190 4.3 0.0 0.00 0.00 0.00 86 1021.0
20260507223306 37 190 4.3 0.0 0.00 0.00 0.00 86 1021.0
20260507220306 39 210 2.6 0.0 0.00 0.00 0.00 80 1021.0
20260507213306 39 210 2.6 0.0 0.00 0.00 0.00 80 1020.0
20260507210307 39 220 2.6 0.0 0.00 0.00 0.00 80 1020.0
20260507203307 39 220 2.6 0.0 0.00 0.00 0.00 86 1020.0
20260507200305 39 220 4.3 0.0 0.00 0.00 0.00 80 1019.0
20260507193306 41 240 4.3 0.0 0.00 0.00 0.00 75 1019.0
20260507190307 42 250 4.3 0.0 0.00 0.00 0.00 70 1019.0
20260507183307 42 250 7.0 0.0 0.00 0.00 0.00 70 1019.0
20260507180310 42 240 7.8 0.0 0.00 0.00 0.00 70 1018.0
20260507173308 44 200 7.0 0.0 0.00 0.00 0.00 70 1018.0
20260507170307 42 210 6.1 0.0 0.00 0.00 0.00 75 1018.0
20260507163307 42 230 5.2 0.0 0.00 0.00 0.00 75 1018.0
20260507160308 44 220 6.1 0.0 0.00 0.00 0.00 75 1018.0
20260507153308 44 190 6.1 0.0 0.00 0.00 0.00 70 1018.0
20260507150308 44 180 6.1 0.0 0.00 0.00 0.00 70 1017.0
20260507143307 44 190 6.1 0.0 0.00 0.00 0.00 65 1017.0
20260507140308 44 190 7.0 0.0 0.00 0.00 0.00 70 1017.0
20260507133307 41 210 6.1 0.0 0.00 0.00 0.00 80 1017.0
20260507130307 41 240 10.4 0.0 0.00 0.00 0.00 80 1017.0
20260507123308 42 200 11.3 0.0 0.00 0.00 0.00 75 1017.0
20260507120307 41 200 11.3 0.0 0.00 0.00 0.00 86 1017.0
20260507113308 39 210 13.9 0.0 0.00 0.00 0.00 86 1017.0
20260507110307 41 210 13.9 0.0 0.00 0.00 0.00 80 1016.0
20260507103307 42 220 13.9 0.0 0.00 0.00 0.00 75 1016.0